sat.trackr.live / text

‹ back to catalog

ZHONGXING-11

NORAD 39157 · 2013-020A

PAYLOAD ACTIVE UNKNOWN

§ Identity

Operator
Country
PRC
Launch date
2013-05-01
Launch site
XICLF
Launch vehicle
Mass (kg)
RCS (m²)
25.12

Purposes: comms

External: N2YO · Heavens-Above · Gunter

§ Orbital elements

Epoch: 2026-09-20T00:16:46.770816Z

Period
1,436.11 min
Inclination
0.0354°
Eccentricity
0.0001166
Mean motion
1.00270935 rev/d
Perigee alt
35,781.9 km
Apogee alt
35,791.7 km
Semi-major
42,165.0 km
B*
0.0000e+0
RAAN
308.0636°
Arg perigee
169.5947°
Mean anomaly
343.3745°
Rev number
4,885

§ Raw data

ZHONGXING-111 39157U 13020A   26263.01165244 -.00000295  00000+0  00000+0 0  99982 39157   0.0354 308.0636 0001166 169.5947 343.3745  1.00270935 48851

JSON: /api/v1/satellites/39157 · /tle

For live sub-satellite position, see the globe view (requires WebGL).

§ Visibility from observer

Set your observer location to see the next 7 days of passes ≥ 10°. The values pass through the URL so the page stays shareable.

No JS? Fill the form by hand. The geolocation button needs JavaScript.